User: anonymous   Login
Location: Homewood
(41.1836°S, 175.9581°E)
Time: 13:57:50
(UTC+00:00)
Language:

Cosmos 407 Rocket - Orbit

View from above orbital plane
View from above orbital plane
View from above satellite
View from above satellite

Ground track
Ground track

The orbit data is extracted from the following two-line orbital elements,

1 05175U 71035B   24173.43504961  .00000369  00000-0  12797-3 0  9990
2 05175  74.0463 174.8338 0028316 109.6680 250.7534 14.38744402782851
Epoch (UTC): 21 June 2024 10:26:28
Eccentricity: 0.0028316
inclination: 74.0463°
perigee height: 742 km
apogee height: 783 km
right ascension of ascending node: 174.8338°
argument of perigee: 109.6680°
revolutions per day: 14.38744402
mean anomaly at epoch: 250.7534°
orbit number at epoch: 78285

The dashed part of the orbit path shows where the satellite is in the earth's shadow,  

DLR